This is the latest recevied weather packets stored in our database for station/object N1UNH. If no packets are shown the sender has not sent any weather packets the latest 10 day(s).
| Time | Temp. | Humidity | Pressure | Rain* | Wind** | Luminosity | Snow |
|---|---|---|---|---|---|---|---|
| 1777827489 | 9.44° C | 52% | 1011.7 hPa | 0 mm | - | 261 W/m² | - |
| 1777827187 | 8.89° C | 47% | 1011.8 hPa | 0 mm | - | 242 W/m² | - |
| 1777826882 | 9.44° C | 51% | 1011.6 hPa | 0 mm | - | 218 W/m² | - |
| 1777826580 | 9.44° C | 56% | 1011.6 hPa | 0 mm | - | 229 W/m² | - |
| 1777826275 | 9.44° C | 56% | 1011.7 hPa | 0 mm | - | 278 W/m² | - |
| 1777825974 | 9.44° C | 53% | 1011.5 hPa | 0 mm | - | 312 W/m² | - |
| 1777825670 | 9.44° C | 53% | 1011.5 hPa | 0 mm | - | 337 W/m² | - |
| 1777825369 | 9.44° C | 56% | 1011.7 hPa | 0 mm | - | 323 W/m² | - |
| 1777825064 | 9.44° C | 54% | 1011.9 hPa | 0 mm | - | 246 W/m² | - |
| 1777824761 | 10° C | 57% | 1011.8 hPa | 0 mm | - | 342 W/m² | - |
| 1777824458 | 10° C | 58% | 1011.8 hPa | 0 mm | - | 204 W/m² | - |
| 1777824154 | 9.44° C | 54% | 1011.8 hPa | 0 mm | - | 300 W/m² | - |
| 1777823850 | 9.44° C | 57% | 1011.9 hPa | 0 mm | - | 302 W/m² | - |
| 1777823548 | 9.44° C | 58% | 1011.9 hPa | 0 mm | - | 384 W/m² | - |
| 1777823245 | 9.44° C | 58% | 1011.7 hPa | 0 mm | - | 352 W/m² | - |
| 1777822942 | 8.89° C | 58% | 1012.2 hPa | 0 mm | - | 330 W/m² | - |
| 1777822640 | 8.89° C | 58% | 1012 hPa | 0 mm | - | 288 W/m² | - |
| 1777822338 | 8.89° C | 63% | 1012 hPa | 0 mm | - | 300 W/m² | - |
| 1777822035 | 8.89° C | 59% | 1012 hPa | 0 mm | - | 267 W/m² | - |
| 1777821733 | 8.33° C | 68% | 1012.1 hPa | 0 mm | - | 313 W/m² | - |
| 1777821430 | 8.33° C | 63% | 1012.2 hPa | 0 mm | - | 278 W/m² | - |
| 1777821127 | 8.33° C | 63% | 1012.1 hPa | 0 mm | - | 264 W/m² | - |
| 1777820824 | 8.33° C | 68% | 1012.2 hPa | 0 mm | - | 267 W/m² | - |
| 1777820520 | 7.78° C | 64% | 1012.2 hPa | 0 mm | - | 271 W/m² | - |
| 1777820217 | 8.33° C | 65% | 1012.2 hPa | 0 mm | - | 256 W/m² | - |
* Rain latest hour (hover to see other rain measurements)
** Current wind speed in m/s (hover to see current wind gust speed)